Regional Weather Roundup
Issued by NWS

Home | Current Version | Previous Version | Graphics & Text | Print | Product List | Glossary On
Versions: 1 2 3 4 5 6 7 8 9 10 11 12 13 14 15 16 17 18 19 20 21 22 23 24 25 26 27 28 29 30 31 32 33 34 35 36 37 38 39 40 41 42 43 44 45 46 47 48 49 50
000
ASUS43 KBIS 011120
RWRND

NORTH DAKOTA REGIONAL WEATHER ROUNDUP
NATIONAL WEATHER SERVICE BISMARCK ND
600 AM CDT WED OCT 01 2014

NOTE: "FAIR" INDICATES FEW OR NO CLOUDS BELOW 12,000 FEET WITH NO
SIGNIFICANT WEATHER AND/OR OBSTRUCTIONS TO VISIBILITY.


NDZ001>003-009>011-017-011200-
NORTHWEST NORTH DAKOTA

CITY           SKY/WX    TMP DP  RH WIND       PRES   REMARKS
WILLISTON      CLOUDY    54  49  83 W17G25    29.54R
MINOT          CLOUDY    52  49  89 SW7       29.46R
MINOT AFB      CLOUDY    52  52 100 W9        29.44R
$$

NDZ018>021-031>035-040>046-011200-
SOUTHWEST NORTH DAKOTA

CITY           SKY/WX    TMP DP  RH WIND       PRES   REMARKS
BISMARCK       CLOUDY    57  53  86 W13       29.57R
DICKINSON      MOCLDY    52  48  86 W20       29.61R
GARRISON         N/A     55  53  93 W18G26    29.50R
HETTINGER ARPT CLOUDY    51  49  92 W13       29.68R
$$

NDZ004>008-012>016-024-026-027-054-011200-
NORTHEAST NORTH DAKOTA

CITY           SKY/WX    TMP DP  RH WIND       PRES   REMARKS
GRAND FORKS    CLOUDY    61  53  75 SW14      29.53R
GRND FRKS AFB  CLOUDY    59  54  83 SW20G25   29.53R
DEVILS LAKE    CLOUDY    55  46  71 SW18      29.48R
$$

NDZ022-023-025-028>030-036>039-047>053-011200-
SOUTHEAST NORTH DAKOTA

CITY           SKY/WX    TMP DP  RH WIND       PRES   REMARKS
FARGO          CLEAR     60  56  86 S15G21    29.60S
JAMESTOWN      CLOUDY    56  52  86 SW12      29.57R
$$



USA.gov is the U.S. government's official web portal to all federal, state and local government web resources and services.